Flag for USA

Past Weather in Christopher Columbus Homes, New Jersey, USA — Yesterday and Last 2 Weeks

Now
43 °F

Overcast.


Feels Like: 41 °F
Forecast: 56 / 41 °F
Wind: 3 mph from North

Location: New York City - Central Park

Current Time: Dec 8, 2019 at 10:27:09 pm

Latest Report: Dec 8, 2019 at 9:51 pm


Visibility: 10 mi

Pressure: 30.35 "Hg

Humidity: 68%

Dew Point: 33 °F

Location of Christopher Columbus HomesLocation

Past Weather in Christopher Columbus Homes — Graph

°F

Christopher Columbus Homes Temperature Yesterday

Maximum temperature yesterday: 38 °F (at 1:51 pm)
Minimum temperature yesterday: 31 °F (at 10:51 pm)
Average temperature yesterday: 34 °F

High & Low Weather Summary for the Past Weeks

 TemperatureHumidityPressure
High60 °F (Nov 26, 1:51 pm)97% (Nov 24, 2:21 am)30.54 "Hg (Nov 24, 2:21 am)
Low28 °F (Dec 8, 2:51 am)26% (Nov 30, 12:51 pm)29.24 "Hg (Nov 24, 11:51 am)
Average40 °F66%29.83 "Hg
* Reported Nov 23 8:51 pm — Dec 8 8:51 pm, Christopher Columbus Homes. Weather by CustomWeather, © 2019

Note: Actual official high and low records may vary slightly from our data, if they occured in-between our weather recording intervals... More about our weather records

Christopher Columbus Homes Weather History for the Previous 24 Hours

Scroll right to see more
 ConditionsComfort  
Time TempWeatherWind HumidityBarometerVisibility
8:51 pm
Sun, Dec 8
43 °FClear.No wind71%30.37 "Hg10 mi
7:51 pm43 °FClear.3 mph65%30.39 "Hg10 mi
6:51 pm41 °FClear.N/A65%30.41 "Hg10 mi
5:51 pm40 °FClear.5 mph58%30.41 "Hg10 mi
4:51 pm40 °FClear.5 mph58%30.41 "Hg10 mi
3:51 pm41 °FSunny.5 mph53%30.42 "Hg10 mi
2:51 pm41 °FSunny.N/A51%30.43 "Hg10 mi
1:51 pm41 °FSunny.5 mph45%30.45 "Hg10 mi
12:51 pm40 °FSunny.6 mph41%30.45 "Hg10 mi
11:51 am39 °FSunny.7 mph46%30.48 "Hg10 mi
10:51 am37 °FSunny.5 mph50%30.51 "Hg10 mi
9:51 am34 °FSunny.3 mph52%30.53 "Hg10 mi
8:51 am32 °FSunny.No wind52%30.54 "Hg10 mi
7:51 am30 °FSunny.3 mph59%30.54 "Hg10 mi
6:51 am28 °FClear.No wind66%30.52 "Hg10 mi
5:51 am28 °FClear.No wind64%30.51 "Hg10 mi
4:51 am28 °FClear.No wind61%30.51 "Hg10 mi
3:51 am29 °FClear.No wind58%30.51 "Hg10 mi
2:51 am28 °FClear.3 mph61%30.51 "Hg10 mi
1:51 am29 °FClear.No wind56%30.51 "Hg10 mi
12:51 am30 °FClear.No wind51%30.50 "Hg10 mi
11:51 pm
Sat, Dec 7
31 °FClear.3 mph49%30.50 "Hg10 mi
10:51 pm31 °FClear.N/A49%30.50 "Hg10 mi
Weather by CustomWeather, © 2019

See weather overview

Advertising